Other Public Products
Issued by NWS Charleston, SC

Current Version | Previous Version | Graphics & Text | Print | Product List | Glossary On
Versions: 1 2 3 4 5 6 7 8 9 10 11 12 13 14 15 16 17 18 19 20 21 22 23 24 25 26 27 28 29 30 31 32 33 34 35 36 37 38 39 40 41 42 43 44 45 46 47 48 49 50
080
FPUS82 KCHS 222212
OPUCHS

TEST...KCHS/KSAV Gateway Observations...TEST
National Weather Service Charleston SC
500 PM EST MON JAN 22 2018

NOTE: "fair" indicates few or no clouds below 12,000 feet with no
significant weather and/or obstructions to visibility.

SCZ050-WAZ558-NCZ071-TXZ119-213-PAZ071-DCZ001-FLZ074-172-MI076-
NYZ176-178-MAZ016-IL014-TNZ027-NJZ106-GAZ044-MD014-222300-

...Gateway Observations for Charleston International...

CITY           SKY/WX    TMP DP  RH WIND       PRES   REMARKS
Chas Airport   MOCLDY    68  61  78 SE10      30.07S
Seattle        PTSUNNY   45  38  76 SW13      30.28R
Charlotte      CLOUDY    61  44  53 S8        30.05F
Dallas DFW     MOSUNNY   61  19  19 NW28G35   29.99R
Dallas Love    MOSUNNY   60  20  21 NW24G32   30.01R
Philladelphia  CLOUDY    55  41  59 SE3       30.07F
Wash National  MOCLDY    58  42  55 S13       30.02S
Baltimore      MOCLDY    59  42  53 SE8       30.02S
Miami          FAIR      77  66  68 SE12      30.04S
Detroit        CLOUDY    50  47  89 S10       29.64F
Newark         CLOUDY    46  40  79 NE6       30.13S
Laguardia      CLOUDY    40  36  86 NE13      30.15R WCI  32
J F K          CLOUDY    45  40  82 E9        30.15R
Boston Logan   CLOUDY    38  37  97 NE12      30.26F FOG     WCI  30
Ft. Lauderdale FAIR      75  66  73 SE12      30.04R
Chicago O`Hare MOCLDY    53  47  79 S13       29.43F
Chicago Midway MOCLDY    54  48  80 S17G25    29.45S
Houston Bush   FAIR      66  27  23 NW18G26   30.02R
Houston Hobby  FAIR      65  26  23 NW17      30.00S
Nashville      PTSUNNY   63  54  72 S21G29    29.70F
Atlanta        CLOUDY    61  59  93 S9        29.95F

$$

GAZ044-118-TXZ119-213-NCZ071-DCZ001-MDZ014-506-PAZ021-071-NJZ106-
NYZ176-178-MAZ106-OHZ011-021-055-MIZ076-KYZ091-ILZ014-INZ047-
MNZ060-ONZ431-222300-

...Gateway Observations for Savannah International...

CITY           SKY/WX    TMP DP  RH WIND       PRES   REMARKS
Savannah Arpt  MOCLDY    71  62  73 S13       30.05
Atlanta        CLOUDY    61  59  93 S9        29.95F
Charlotte      CLOUDY    61  44  53 S8        30.05F
Dallas DFW     MOSUNNY   61  19  19 NW28G35   29.99R
Houston Bush   FAIR      66  27  23 NW18G26   30.02R
Wash National  MOCLDY    58  42  55 S13       30.02S
Wash Dulles    MOCLDY    63  42  46 S7        30.01R
Baltimore      MOCLDY    59  42  53 SE8       30.02S
Philadelphia   CLOUDY    55  41  59 SE3       30.07F
Newark         CLOUDY    46  40  79 NE6       30.13S
Laguardia      CLOUDY    40  36  86 NE13      30.15R WCI  32
J F K          CLOUDY    45  40  82 E9        30.15R
Boston         CLOUDY    38  37  97 NE12      30.26F FOG     WCI  30
Pittsburg      CLOUDY    62  44  51 S5        29.82F
Akron          CLOUDY    58  43  57 S15       29.78F
Cleveland      CLOUDY    60  45  57 S21G28    29.75F
Cincinnati     CLOUDY    57  50  77 S16G29    29.65F
Columbus       CLOUDY    53  49  85 S14G20    29.73F
Detroit        CLOUDY    50  47  89 S10       29.64F
Chicago O`Hare MOCLDY    53  47  79 S13       29.43F
Minneapolis    HVY SNOW  28  28 100 N17       29.68R VSB 1/4 WCI  16
Indianapolis   MOCLDY    54  49  83 S16       29.57F
Toronto Canada FOG       34  32  93 E7        29.84  VSB 1/2 WCI  28

$$




USA.gov is the U.S. government's official web portal to all federal, state and local government web resources and services.